| time (UTC) | temp C | wind direction | speed KPH | gust KPH | rain 1hr cm | rain 24hr cm | rain mn cm | humidity % | barometer mb |
| 20260504220057 | 21 | 239 | 6.4 | 25.7 | 0.00 | 0.00 | 0.00 | 33 | 1004.8 |
| 20260504214600 | 21 | 280 | 11.3 | 25.7 | 0.00 | 0.00 | 0.00 | 32 | 1004.8 |
| 20260504213103 | 21 | 360 | 6.4 | 19.3 | 0.00 | 0.00 | 0.00 | 35 | 1004.7 |
| 20260504211551 | 21 | 360 | 8.0 | 24.1 | 0.00 | 0.00 | 0.00 | 33 | 1004.6 |
| 20260504210051 | 21 | 360 | 11.3 | 27.4 | 0.00 | 0.00 | 0.00 | 34 | 1004.5 |
| 20260504204556 | 21 | 360 | 9.7 | 33.8 | 0.00 | 0.00 | 0.00 | 33 | 1004.6 |
| 20260504203054 | 21 | 360 | 8.0 | 30.6 | 0.00 | 0.00 | 0.00 | 35 | 1004.6 |
| 20260504201554 | 21 | 360 | 9.7 | 25.7 | 0.00 | 0.00 | 0.00 | 35 | 1004.7 |
| 20260504200055 | 21 | 360 | 8.0 | 24.1 | 0.00 | 0.00 | 0.00 | 37 | 1004.6 |
| 20260504194559 | 20 | 360 | 9.7 | 24.1 | 0.00 | 0.00 | 0.00 | 37 | 1004.7 |
| 20260504193103 | 20 | 360 | 8.0 | 19.3 | 0.00 | 0.00 | 0.00 | 39 | 1004.8 |
| 20260504191602 | 19 | 360 | 11.3 | 30.6 | 0.00 | 0.00 | 0.00 | 40 | 1004.9 |
| 20260504190053 | 18 | 360 | 3.2 | 16.1 | 0.00 | 0.00 | 0.00 | 40 | 1005.2 |
| 20260504184556 | 18 | 360 | 3.2 | 20.9 | 0.00 | 0.00 | 0.00 | 40 | 1005.3 |
| 20260504183057 | 18 | 360 | 9.7 | 29.0 | 0.00 | 0.00 | 0.00 | 38 | 1005.3 |
| 20260504181559 | 19 | 360 | 9.7 | 30.6 | 0.00 | 0.00 | 0.00 | 36 | 1005.1 |
| 20260504180054 | 19 | 360 | 9.7 | 32.2 | 0.00 | 0.00 | 0.00 | 36 | 1005.2 |
| 20260504174550 | 19 | 360 | 9.7 | 32.2 | 0.00 | 0.00 | 0.00 | 35 | 1005.0 |
| 20260504173054 | 20 | 360 | 14.5 | 35.4 | 0.00 | 0.00 | 0.00 | 35 | 1005.0 |
| 20260504171558 | 19 | 360 | 16.1 | 43.5 | 0.00 | 0.00 | 0.00 | 33 | 1005.0 |
| 20260504150111 | 17 | 360 | 4.8 | 25.7 | 0.00 | 0.00 | 0.00 | 44 | 1006.4 |
| 20260504081554 | 3 | 250 | 3.2 | 6.4 | 0.00 | 0.00 | 0.00 | 69 | 1008.4 |
| 20260504080110 | 3 | 248 | 1.6 | 6.4 | 0.00 | 0.00 | 0.00 | 68 | 1008.2 |
| 20260504044552 | 2 | 232 | 1.6 | 6.4 | 0.00 | 0.00 | 0.00 | 70 | 1008.0 |
| 20260504043051 | 3 | 232 | 1.6 | 4.8 | 0.00 | 0.00 | 0.00 | 69 | 1008.0 |
| 20260504041549 | 3 | 232 | 0.0 | 3.2 | 0.00 | 0.00 | 0.00 | 68 | 1007.9 |
| 20260504040114 | 3 | 0 | 0.0 | 4.8 | 0.00 | 0.00 | 0.00 | 68 | 1007.9 |
| 20260504034550 | 3 | 225 | 1.6 | 4.8 | 0.00 | 0.00 | 0.00 | 68 | 1007.8 |
| 20260504033050 | 3 | 0 | 0.0 | 3.2 | 0.00 | 0.00 | 0.00 | 68 | 1007.6 |
| 20260504031556 | 3 | 0 | 0.0 | 3.2 | 0.00 | 0.00 | 0.00 | 68 | 1007.7 |
| 20260504030050 | 3 | 0 | 0.0 | 0.0 | 0.00 | 0.00 | 0.00 | 67 | 1007.6 |
| 20260504024550 | 4 | 0 | 0.0 | 0.0 | 0.00 | 0.00 | 0.00 | 65 | 1007.6 |
| 20260504023100 | 5 | 0 | 0.0 | 0.0 | 0.00 | 0.00 | 0.00 | 63 | 1007.6 |
| 20260504021554 | 5 | 0 | 0.0 | 0.0 | 0.00 | 0.00 | 0.00 | 61 | 1007.7 |
| 20260504020048 | 5 | 0 | 0.0 | 0.0 | 0.00 | 0.00 | 0.00 | 60 | 1007.6 |
| 20260504014601 | 6 | 0 | 0.0 | 3.2 | 0.00 | 0.03 | 0.00 | 58 | 1007.5 |
| 20260504013051 | 6 | 0 | 0.0 | 3.2 | 0.00 | 0.03 | 0.00 | 57 | 1007.5 |
| 20260504011552 | 7 | 0 | 0.0 | 8.0 | 0.00 | 0.03 | 0.00 | 55 | 1007.3 |
| 20260504010056 | 7 | 234 | 3.2 | 12.9 | 0.00 | 0.03 | 0.00 | 55 | 1007.2 |
| 20260504004554 | 7 | 284 | 1.6 | 11.3 | 0.00 | 0.13 | 0.00 | 53 | 1007.0 |
| 20260504003103 | 7 | 275 | 3.2 | 16.1 | 0.00 | 0.13 | 0.00 | 52 | 1006.6 |
| 20260504001605 | 8 | 271 | 4.8 | 20.9 | 0.00 | 0.13 | 0.00 | 51 | 1006.4 |
| 20260504000129 | 8 | 285 | 3.2 | 12.9 | 0.00 | 0.13 | 0.00 | 51 | 1006.1 |
| 20260503234556 | 8 | 279 | 4.8 | 12.9 | 0.00 | 0.13 | 0.00 | 50 | 1005.8 |
| 20260503233055 | 9 | 295 | 6.4 | 25.7 | 0.00 | 0.13 | 0.00 | 48 | 1005.6 |
| 20260503231551 | 9 | 293 | 4.8 | 19.3 | 0.00 | 0.13 | 0.00 | 46 | 1005.4 |
| 20260503230053 | 10 | 290 | 9.7 | 24.1 | 0.00 | 0.13 | 0.00 | 44 | 1005.2 |
| 20260503224548 | 10 | 324 | 6.4 | 27.4 | 0.00 | 0.13 | 0.00 | 46 | 1004.9 |
| 20260503223057 | 10 | 280 | 9.7 | 27.4 | 0.00 | 0.13 | 0.00 | 46 | 1004.6 |
| 20260503221558 | 10 | 287 | 6.4 | 27.4 | 0.00 | 0.13 | 0.00 | 47 | 1004.5 |